owner,sensor,date,latitude,longitude,vertical_datum,direction_of_sea_water_velocity,sea_water_speed,upward_sea_water_velocity,qcFlag 
TABS,ioos:station:wmo:42049:1,2012-02-01T00:00:00Z,28.3507,-96.0058,2.0,282.0433135,21.61572807,-99999.0,'11111222,11111222,99999999' 
TABS,ioos:station:wmo:42049:1,2012-02-01T00:30:00Z,28.3507,-96.0058,2.0,276.2978374,19.23607288,-99999.0,'11111222,11111222,99999999' 
TABS,ioos:station:wmo:42049:1,2012-02-01T01:00:00Z,28.3507,-96.0058,2.0,272.7563138,19.34237059,-99999.0,'11111222,11111222,99999999' 
TABS,ioos:station:wmo:42049:1,2012-02-01T01:30:00Z,28.3507,-96.0058,2.0,269.5263166,19.3706608,-99999.0,'11111222,11111222,99999999' 
TABS,ioos:station:wmo:42049:1,2012-02-01T02:00:00Z,28.3507,-96.0058,2.0,270.9229764,18.6324153,-99999.0,'11111222,11111222,99999999' 
TABS,ioos:station:wmo:42049:1,2012-02-01T02:30:00Z,28.3507,-96.0058,2.0,264.5046742,16.91774217,-99999.0,'11111222,11111222,99999999' 
TABS,ioos:station:wmo:42049:1,2012-02-01T03:00:00Z,28.3507,-96.0058,2.0,253.9793242,16.81294739,-99999.0,'11111222,11111222,99999999' 
TABS,ioos:station:wmo:42049:1,2012-02-01T03:30:00Z,28.3507,-96.0058,2.0,257.9005267,18.51119661,-99999.0,'11111222,11111222,99999999' 
TABS,ioos:station:wmo:42049:1,2012-02-01T04:00:00Z,28.3507,-96.0058,2.0,248.4781265,13.68405276,-99999.0,'11111222,11111222,99999999' 
TABS,ioos:station:wmo:42049:1,2012-02-01T04:30:00Z,28.3507,-96.0058,2.0,250.4335474,13.61625866,-99999.0,'11111222,11111222,99999999' 
TABS,ioos:station:wmo:42049:1,2012-02-01T05:00:00Z,28.3507,-96.0058,2.0,249.7888074,16.12271069,-99999.0,'11111222,11111222,99999999' 
TABS,ioos:station:wmo:42049:1,2012-02-01T05:30:00Z,28.3507,-96.0058,2.0,254.734909,15.72477345,-99999.0,'11111222,11111222,99999999' 
TABS,ioos:station:wmo:42049:1,2012-02-01T06:00:00Z,28.3507,-96.0058,2.0,259.7663634,15.02907183,-99999.0,'11111222,11111222,99999999' 
TABS,ioos:station:wmo:42049:1,2012-02-01T06:30:00Z,28.3507,-96.0058,2.0,250.4641324,14.98247309,-99999.0,'11111222,11111222,99999999' 
TABS,ioos:station:wmo:42049:1,2012-02-01T07:00:00Z,28.3507,-96.0058,2.0,259.8936991,12.87982919,-99999.0,'11111222,11111222,99999999' 
TABS,ioos:station:wmo:42049:1,2012-02-01T07:30:00Z,28.3507,-96.0058,2.0,258.3375223,12.76347915,-99999.0,'11111222,11111222,99999999' 
TABS,ioos:station:wmo:42049:1,2012-02-01T08:00:00Z,28.3507,-96.0058,2.0,259.4403167,11.07758999,-99999.0,'11111222,11111222,99999999' 
TABS,ioos:station:wmo:42049:1,2012-02-01T08:30:00Z,28.3507,-96.0058,2.0,263.7890418,12.20161055,-99999.0,'11111222,11111222,99999999' 
TABS,ioos:station:wmo:42049:1,2012-02-01T09:00:00Z,28.3507,-96.0058,2.0,267.7396429,13.44045386,-99999.0,'11111222,11111222,99999999' 
TABS,ioos:station:wmo:42049:1,2012-02-01T09:30:00Z,28.3507,-96.0058,2.0,292.6934372,13.24539543,-99999.0,'11111222,11111222,99999999' 
TABS,ioos:station:wmo:42049:1,2012-02-01T10:00:00Z,28.3507,-96.0058,2.0,303.532244,12.0564547,-99999.0,'11111222,11111222,99999999' 
TABS,ioos:station:wmo:42049:1,2012-02-01T10:30:00Z,28.3507,-96.0058,2.0,322.4961558,9.756597768,-99999.0,'11133222,11111222,99999999' 
TABS,ioos:station:wmo:42049:1,2012-02-01T11:00:00Z,28.3507,-96.0058,2.0,329.1207536,9.332963088,-99999.0,'11133222,11111222,99999999' 
TABS,ioos:station:wmo:42049:1,2012-02-01T11:30:00Z,28.3507,-96.0058,2.0,330.1155278,9.653652159,-99999.0,'11133222,11111222,99999999' 
TABS,ioos:station:wmo:42049:1,2012-02-01T12:00:00Z,28.3507,-96.0058,2.0,333.569403,9.548036447,-99999.0,'11133222,11111222,99999999' 
TABS,ioos:station:wmo:42049:1,2012-02-01T12:30:00Z,28.3507,-96.0058,2.0,339.101363,8.606189633,-99999.0,'11133222,11111222,99999999' 
TABS,ioos:station:wmo:42049:1,2012-02-01T13:00:00Z,28.3507,-96.0058,2.0,355.6432456,8.424345672,-99999.0,'11133222,11111222,99999999' 
TABS,ioos:station:wmo:42049:1,2012-02-01T13:30:00Z,28.3507,-96.0058,2.0,352.3874552,6.265221465,-99999.0,'11133222,11111222,99999999' 
TABS,ioos:station:wmo:42049:1,2012-02-01T14:00:00Z,28.3507,-96.0058,2.0,18.71735845,3.209750769,-99999.0,'11133222,11111222,99999999' 
TABS,ioos:station:wmo:42049:1,2012-02-01T14:30:00Z,28.3507,-96.0058,2.0,32.79441914,4.080318615,-99999.0,'11133222,11111222,99999999' 
TABS,ioos:station:wmo:42049:1,2012-02-01T15:00:00Z,28.3507,-96.0058,2.0,40.06481274,2.547959968,-99999.0,'11133222,11111222,99999999' 
TABS,ioos:station:wmo:42049:1,2012-02-01T15:30:00Z,28.3507,-96.0058,2.0,92.00747911,4.852978467,-99999.0,'11133222,11111222,99999999' 
TABS,ioos:station:wmo:42049:1,2012-02-01T16:00:00Z,28.3507,-96.0058,2.0,77.04838317,4.997129176,-99999.0,'11133222,11111222,99999999' 
TABS,ioos:station:wmo:42049:1,2012-02-01T16:30:00Z,28.3507,-96.0058,2.0,90.82434089,4.170431632,-99999.0,'11133222,11111222,99999999' 
TABS,ioos:station:wmo:42049:1,2012-02-01T17:00:00Z,28.3507,-96.0058,2.0,112.0053227,5.738022307,-99999.0,'11133222,11111222,99999999' 
TABS,ioos:station:wmo:42049:1,2012-02-01T17:30:00Z,28.3507,-96.0058,2.0,110.642914,7.715361301,-99999.0,'11133222,11111222,99999999' 
TABS,ioos:station:wmo:42049:1,2012-02-01T18:00:00Z,28.3507,-96.0058,2.0,136.4850048,7.639319341,-99999.0,'11133222,11111222,99999999' 
TABS,ioos:station:wmo:42049:1,2012-02-01T18:30:00Z,28.3507,-96.0058,2.0,130.7505624,10.4018508,-99999.0,'11111222,11111222,99999999' 
TABS,ioos:station:wmo:42049:1,2012-02-01T19:00:00Z,28.3507,-96.0058,2.0,129.9708329,11.53489055,-99999.0,'11111222,11111222,99999999' 
TABS,ioos:station:wmo:42049:1,2012-02-01T19:30:00Z,28.3507,-96.0058,2.0,151.0719294,8.786273385,-99999.0,'11133222,11111222,99999999' 
TABS,ioos:station:wmo:42049:1,2012-02-01T20:00:00Z,28.3507,-96.0058,2.0,176.8081703,10.77671564,-99999.0,'11111222,11111222,99999999' 
TABS,ioos:station:wmo:42049:1,2012-02-01T20:30:00Z,28.3507,-96.0058,2.0,180.9987405,11.47174355,-99999.0,'11111222,11111222,99999999' 
TABS,ioos:station:wmo:42049:1,2012-02-01T21:00:00Z,28.3507,-96.0058,2.0,178.6519054,11.90329366,-99999.0,'11111222,11111222,99999999' 
TABS,ioos:station:wmo:42049:1,2012-02-01T21:30:00Z,28.3507,-96.0058,2.0,169.1711644,10.27292558,-99999.0,'11111222,11111222,99999999' 
TABS,ioos:station:wmo:42049:1,2012-02-01T22:00:00Z,28.3507,-96.0058,2.0,192.8324872,9.815156647,-99999.0,'11133222,11111222,99999999' 
TABS,ioos:station:wmo:42049:1,2012-02-01T22:30:00Z,28.3507,-96.0058,2.0,179.1378847,11.30127869,-99999.0,'11111222,11111222,99999999' 
TABS,ioos:station:wmo:42049:1,2012-02-01T23:00:00Z,28.3507,-96.0058,2.0,191.0049344,9.586292297,-99999.0,'11133222,11111222,99999999' 
TABS,ioos:station:wmo:42049:1,2012-02-01T23:30:00Z,28.3507,-96.0058,2.0,174.4365937,9.2837277,-99999.0,'11133222,11111222,99999999' 
TABS,ioos:station:wmo:42049:1,2012-02-02T00:00:00Z,28.3507,-96.0058,2.0,180.3351749,10.25017561,-99999.0,'11111222,11111222,99999999' 
TABS,ioos:station:wmo:42049:1,2012-02-02T00:30:00Z,28.3507,-96.0058,2.0,176.5943402,6.902188059,-99999.0,'11133222,11111222,99999999' 
TABS,ioos:station:wmo:42049:1,2012-02-02T01:00:00Z,28.3507,-96.0058,2.0,188.2580031,7.588688951,-99999.0,'11133222,11111222,99999999' 
TABS,ioos:station:wmo:42049:1,2012-02-02T01:30:00Z,28.3507,-96.0058,2.0,204.3069799,6.243476596,-99999.0,'11133222,11111222,99999999' 
TABS,ioos:station:wmo:42049:1,2012-02-02T02:00:00Z,28.3507,-96.0058,2.0,225.7057569,8.033343015,-99999.0,'11133222,11111222,99999999' 
TABS,ioos:station:wmo:42049:1,2012-02-02T02:30:00Z,28.3507,-96.0058,2.0,232.6503174,7.170251042,-99999.0,'11133222,11111222,99999999' 
TABS,ioos:station:wmo:42049:1,2012-02-02T03:00:00Z,28.3507,-96.0058,2.0,233.7202271,6.016319473,-99999.0,'11133222,11111222,99999999' 
TABS,ioos:station:wmo:42049:1,2012-02-02T03:30:00Z,28.3507,-96.0058,2.0,252.4146948,5.329024301,-99999.0,'11133222,11111222,99999999' 
TABS,ioos:station:wmo:42049:1,2012-02-02T04:00:00Z,28.3507,-96.0058,2.0,279.5868595,8.346556176,-99999.0,'11133222,11111222,99999999' 
TABS,ioos:station:wmo:42049:1,2012-02-02T04:30:00Z,28.3507,-96.0058,2.0,287.5104985,7.444971457,-99999.0,'11133222,11111222,99999999' 
TABS,ioos:station:wmo:42049:1,2012-02-02T05:00:00Z,28.3507,-96.0058,2.0,303.2180181,2.354782368,-99999.0,'11133222,11111222,99999999' 
TABS,ioos:station:wmo:42049:1,2012-02-02T05:30:00Z,28.3507,-96.0058,2.0,266.6331263,3.23558341,-99999.0,'11133222,11111222,99999999' 
TABS,ioos:station:wmo:42049:1,2012-02-02T06:00:00Z,28.3507,-96.0058,2.0,286.7780488,3.498942697,-99999.0,'11133222,11111222,99999999' 
TABS,ioos:station:wmo:42049:1,2012-02-02T06:30:00Z,28.3507,-96.0058,2.0,283.6084791,7.140448165,-99999.0,'11133222,11111222,99999999' 
TABS,ioos:station:wmo:42049:1,2012-02-02T07:00:00Z,28.3507,-96.0058,2.0,287.5512048,10.24699956,-99999.0,'11111222,11111222,99999999' 
TABS,ioos:station:wmo:42049:1,2012-02-02T07:30:00Z,28.3507,-96.0058,2.0,286.0308567,10.1756818,-99999.0,'11111222,11111222,99999999' 
TABS,ioos:station:wmo:42049:1,2012-02-02T08:00:00Z,28.3507,-96.0058,2.0,288.8949075,11.82729893,-99999.0,'11111222,11111222,99999999' 
TABS,ioos:station:wmo:42049:1,2012-02-02T08:30:00Z,28.3507,-96.0058,2.0,293.9005015,9.330021436,-99999.0,'11133222,11111222,99999999' 
TABS,ioos:station:wmo:42049:1,2012-02-02T09:00:00Z,28.3507,-96.0058,2.0,274.7242983,8.378460479,-99999.0,'11133222,11111222,99999999' 
TABS,ioos:station:wmo:42049:1,2012-02-02T09:30:00Z,28.3507,-96.0058,2.0,274.4386575,11.11332533,-99999.0,'11111222,11111222,99999999' 
TABS,ioos:station:wmo:42049:1,2012-02-02T10:00:00Z,28.3507,-96.0058,2.0,277.5835163,19.70230697,-99999.0,'11111222,11111222,99999999' 
TABS,ioos:station:wmo:42049:1,2012-02-02T10:30:00Z,28.3507,-96.0058,2.0,284.3741572,27.99637298,-99999.0,'11111222,11111222,99999999' 
TABS,ioos:station:wmo:42049:1,2012-02-02T11:00:00Z,28.3507,-96.0058,2.0,278.6846972,26.75675802,-99999.0,'11111222,11111222,99999999' 
TABS,ioos:station:wmo:42049:1,2012-02-02T11:30:00Z,28.3507,-96.0058,2.0,272.1505044,31.45214301,-99999.0,'11111222,11111222,99999999' 
TABS,ioos:station:wmo:42049:1,2012-02-02T12:00:00Z,28.3507,-96.0058,2.0,265.8796124,33.26596609,-99999.0,'11111222,11111222,99999999' 
TABS,ioos:station:wmo:42049:1,2012-02-02T12:30:00Z,28.3507,-96.0058,2.0,259.158173,31.89935579,-99999.0,'11111222,11111222,99999999' 
TABS,ioos:station:wmo:42049:1,2012-02-02T13:00:00Z,28.3507,-96.0058,2.0,255.2900018,31.78163778,-99999.0,'11111222,11111222,99999999' 
TABS,ioos:station:wmo:42049:1,2012-02-02T13:30:00Z,28.3507,-96.0058,2.0,248.5827735,29.6042176,-99999.0,'11111222,11111222,99999999' 
TABS,ioos:station:wmo:42049:1,2012-02-02T14:00:00Z,28.3507,-96.0058,2.0,246.9673125,28.95844264,-99999.0,'11111222,11111222,99999999' 
TABS,ioos:station:wmo:42049:1,2012-02-02T14:30:00Z,28.3507,-96.0058,2.0,241.1678208,32.22459464,-99999.0,'11111222,11111222,99999999' 
TABS,ioos:station:wmo:42049:1,2012-02-02T15:00:00Z,28.3507,-96.0058,2.0,234.6271011,29.85019263,-99999.0,'11111222,11111222,99999999' 
TABS,ioos:station:wmo:42049:1,2012-02-02T15:30:00Z,28.3507,-96.0058,2.0,231.7318513,26.47988104,-99999.0,'11111222,11111222,99999999' 
TABS,ioos:station:wmo:42049:1,2012-02-02T16:00:00Z,28.3507,-96.0058,2.0,228.5205607,21.87675022,-99999.0,'11111222,11111222,99999999' 
TABS,ioos:station:wmo:42049:1,2012-02-02T16:30:00Z,28.3507,-96.0058,2.0,215.832303,25.52018221,-99999.0,'11111222,11111222,99999999' 
TABS,ioos:station:wmo:42049:1,2012-02-02T17:00:00Z,28.3507,-96.0058,2.0,216.1343027,18.85755286,-99999.0,'11111222,11111222,99999999' 
TABS,ioos:station:wmo:42049:1,2012-02-02T17:30:00Z,28.3507,-96.0058,2.0,226.8077747,13.22240901,-99999.0,'11111222,11111222,99999999' 
TABS,ioos:station:wmo:42049:1,2012-02-02T18:00:00Z,28.3507,-96.0058,2.0,262.2154365,13.58518311,-99999.0,'11111222,11111222,99999999' 
TABS,ioos:station:wmo:42049:1,2012-02-02T18:30:00Z,28.3507,-96.0058,2.0,281.5360374,22.40251995,-99999.0,'11111222,11111222,99999999' 
TABS,ioos:station:wmo:42049:1,2012-02-02T19:00:00Z,28.3507,-96.0058,2.0,289.4861815,25.69150249,-99999.0,'11111222,11111222,99999999' 
TABS,ioos:station:wmo:42049:1,2012-02-02T19:30:00Z,28.3507,-96.0058,2.0,290.2806075,30.14897842,-99999.0,'11111222,11111222,99999999' 
TABS,ioos:station:wmo:42049:1,2012-02-02T20:00:00Z,28.3507,-96.0058,2.0,287.0777606,33.23538024,-99999.0,'11111222,11111222,99999999' 
TABS,ioos:station:wmo:42049:1,2012-02-02T20:30:00Z,28.3507,-96.0058,2.0,287.5766408,43.67912201,-99999.0,'11111222,11111222,99999999' 
TABS,ioos:station:wmo:42049:1,2012-02-02T21:00:00Z,28.3507,-96.0058,2.0,287.51567,41.96566811,-99999.0,'11111222,11111222,99999999' 
TABS,ioos:station:wmo:42049:1,2012-02-02T21:30:00Z,28.3507,-96.0058,2.0,286.0506445,42.02828214,-99999.0,'11111222,11111222,99999999' 
TABS,ioos:station:wmo:42049:1,2012-02-02T22:00:00Z,28.3507,-96.0058,2.0,279.0173866,42.30278123,-99999.0,'11111222,11111222,99999999' 
TABS,ioos:station:wmo:42049:1,2012-02-02T22:30:00Z,28.3507,-96.0058,2.0,277.0936009,42.43476994,-99999.0,'11111222,11111222,99999999' 
TABS,ioos:station:wmo:42049:1,2012-02-02T23:00:00Z,28.3507,-96.0058,2.0,279.9286961,41.23756176,-99999.0,'11111222,11111222,99999999' 
TABS,ioos:station:wmo:42049:1,2012-02-02T23:30:00Z,28.3507,-96.0058,2.0,278.3508944,40.07486619,-99999.0,'11111222,11111222,99999999' 
TABS,ioos:station:wmo:42049:1,2012-02-03T00:00:00Z,28.3507,-96.0058,2.0,275.8920679,39.35789756,-99999.0,'11111222,11111222,99999999' 
TABS,ioos:station:wmo:42049:1,2012-02-03T00:30:00Z,28.3507,-96.0058,2.0,273.1189914,40.99070382,-99999.0,'11111222,11111222,99999999' 
TABS,ioos:station:wmo:42049:1,2012-02-03T01:00:00Z,28.3507,-96.0058,2.0,269.259714,42.59355116,-99999.0,'11111222,11111222,99999999' 
TABS,ioos:station:wmo:42049:1,2012-02-03T01:30:00Z,28.3507,-96.0058,2.0,269.7168062,42.55051821,-99999.0,'11111222,11111222,99999999' 
TABS,ioos:station:wmo:42049:1,2012-02-03T02:00:00Z,28.3507,-96.0058,2.0,263.3410795,41.74155244,-99999.0,'11111222,11111222,99999999' 
TABS,ioos:station:wmo:42049:1,2012-02-03T02:30:00Z,28.3507,-96.0058,2.0,263.7184776,41.77074694,-99999.0,'11111222,11111222,99999999' 
TABS,ioos:station:wmo:42049:1,2012-02-03T03:00:00Z,28.3507,-96.0058,2.0,263.6865679,41.92422927,-99999.0,'11111222,11111222,99999999' 
TABS,ioos:station:wmo:42049:1,2012-02-03T03:30:00Z,28.3507,-96.0058,2.0,262.2674675,42.96060172,-99999.0,'11111222,11111222,99999999' 
TABS,ioos:station:wmo:42049:1,2012-02-03T04:00:00Z,28.3507,-96.0058,2.0,260.7180844,42.71928955,-99999.0,'11111222,11111222,99999999' 
TABS,ioos:station:wmo:42049:1,2012-02-03T04:30:00Z,28.3507,-96.0058,2.0,258.6180569,42.36307944,-99999.0,'11111222,11111222,99999999' 
TABS,ioos:station:wmo:42049:1,2012-02-03T05:00:00Z,28.3507,-96.0058,2.0,263.0553797,42.84429134,-99999.0,'11111222,11111222,99999999' 
TABS,ioos:station:wmo:42049:1,2012-02-03T05:30:00Z,28.3507,-96.0058,2.0,261.4237349,42.71761346,-99999.0,'11111222,11111222,99999999' 
TABS,ioos:station:wmo:42049:1,2012-02-03T06:00:00Z,28.3507,-96.0058,2.0,261.0970891,42.90689572,-99999.0,'11111222,11111222,99999999' 
TABS,ioos:station:wmo:42049:1,2012-02-03T06:30:00Z,28.3507,-96.0058,2.0,262.1661332,40.42725071,-99999.0,'11111222,11111222,99999999' 
TABS,ioos:station:wmo:42049:1,2012-02-03T07:00:00Z,28.3507,-96.0058,2.0,262.2768795,43.16147472,-99999.0,'11111222,11111222,99999999' 
TABS,ioos:station:wmo:42049:1,2012-02-03T07:30:00Z,28.3507,-96.0058,2.0,256.9324561,41.44313936,-99999.0,'11111222,11111222,99999999' 
TABS,ioos:station:wmo:42049:1,2012-02-03T08:00:00Z,28.3507,-96.0058,2.0,259.6038188,43.3922954,-99999.0,'11111222,11111222,99999999' 
TABS,ioos:station:wmo:42049:1,2012-02-03T08:30:00Z,28.3507,-96.0058,2.0,256.7408093,44.86594477,-99999.0,'11111222,11111222,99999999' 
TABS,ioos:station:wmo:42049:1,2012-02-03T09:00:00Z,28.3507,-96.0058,2.0,258.4015888,46.80566846,-99999.0,'11111222,11111222,99999999' 
TABS,ioos:station:wmo:42049:1,2012-02-03T09:30:00Z,28.3507,-96.0058,2.0,260.6477162,48.61615884,-99999.0,'11111222,11111222,99999999' 
TABS,ioos:station:wmo:42049:1,2012-02-03T10:00:00Z,28.3507,-96.0058,2.0,262.4086257,51.55178076,-99999.0,'11111222,11111222,99999999' 
TABS,ioos:station:wmo:42049:1,2012-02-03T10:30:00Z,28.3507,-96.0058,2.0,259.2482564,56.1252216,-99999.0,'11111222,11111222,99999999' 
TABS,ioos:station:wmo:42049:1,2012-02-03T11:00:00Z,28.3507,-96.0058,2.0,259.1410278,57.01076828,-99999.0,'11111222,11111222,99999999' 
TABS,ioos:station:wmo:42049:1,2012-02-03T11:30:00Z,28.3507,-96.0058,2.0,259.8333052,58.07174959,-99999.0,'11111222,11111222,99999999' 
TABS,ioos:station:wmo:42049:1,2012-02-03T12:00:00Z,28.3507,-96.0058,2.0,260.6382997,55.94506234,-99999.0,'11111222,11111222,99999999' 
TABS,ioos:station:wmo:42049:1,2012-02-03T12:30:00Z,28.3507,-96.0058,2.0,263.8951854,55.01193052,-99999.0,'11111222,11111222,99999999' 
TABS,ioos:station:wmo:42049:1,2012-02-03T13:00:00Z,28.3507,-96.0058,2.0,265.643394,55.82126118,-99999.0,'11111222,11111222,99999999' 
TABS,ioos:station:wmo:42049:1,2012-02-03T13:30:00Z,28.3507,-96.0058,2.0,270.5732522,54.01269943,-99999.0,'11111222,11111222,99999999' 
TABS,ioos:station:wmo:42049:1,2012-02-03T14:00:00Z,28.3507,-96.0058,2.0,273.118296,53.86974104,-99999.0,'11111222,11111222,99999999' 
TABS,ioos:station:wmo:42049:1,2012-02-03T14:30:00Z,28.3507,-96.0058,2.0,277.042929,55.13597737,-99999.0,'11111222,11111222,99999999' 
TABS,ioos:station:wmo:42049:1,2012-02-03T15:00:00Z,28.3507,-96.0058,2.0,280.6685917,56.55755741,-99999.0,'11111222,11111222,99999999' 
TABS,ioos:station:wmo:42049:1,2012-02-03T15:30:00Z,28.3507,-96.0058,2.0,284.8641319,57.26620819,-99999.0,'11111222,11111222,99999999' 
TABS,ioos:station:wmo:42049:1,2012-02-03T16:00:00Z,28.3507,-96.0058,2.0,282.6827478,56.66243906,-99999.0,'11111222,11111222,99999999' 
TABS,ioos:station:wmo:42049:1,2012-02-03T16:30:00Z,28.3507,-96.0058,2.0,282.3054161,54.43043634,-99999.0,'11111222,11111222,99999999' 
TABS,ioos:station:wmo:42049:1,2012-02-03T17:00:00Z,28.3507,-96.0058,2.0,287.0475385,54.57794793,-99999.0,'11111222,11111222,99999999' 
TABS,ioos:station:wmo:42049:1,2012-02-03T17:30:00Z,28.3507,-96.0058,2.0,282.9034768,51.14136193,-99999.0,'11111222,11111222,99999999' 
TABS,ioos:station:wmo:42049:1,2012-02-03T18:00:00Z,28.3507,-96.0058,2.0,282.8453478,49.92947426,-99999.0,'11111222,11111222,99999999' 
TABS,ioos:station:wmo:42049:1,2012-02-03T18:30:00Z,28.3507,-96.0058,2.0,280.9996471,50.99682833,-99999.0,'11111222,11111222,99999999' 
TABS,ioos:station:wmo:42049:1,2012-02-03T19:00:00Z,28.3507,-96.0058,2.0,281.0001864,49.99857998,-99999.0,'11111222,11111222,99999999' 
TABS,ioos:station:wmo:42049:1,2012-02-03T19:30:00Z,28.3507,-96.0058,2.0,281.9968352,45.99449641,-99999.0,'11111222,11111222,99999999' 
TABS,ioos:station:wmo:42049:1,2012-02-03T20:00:00Z,28.3507,-96.0058,2.0,267.0016163,126.0024484,-99999.0,'11111222,11111222,99999999' 
TABS,ioos:station:wmo:42049:1,2012-02-03T20:30:00Z,28.3507,-96.0058,2.0,277.3176155,43.26231848,-99999.0,'11111222,11111222,99999999' 
TABS,ioos:station:wmo:42049:1,2012-02-03T21:00:00Z,28.3507,-96.0058,2.0,272.9967757,44.00015455,-99999.0,'11111222,11111222,99999999' 
TABS,ioos:station:wmo:42049:1,2012-02-03T21:30:00Z,28.3507,-96.0058,2.0,273.8875788,44.84316224,-99999.0,'11111222,11111222,99999999' 
TABS,ioos:station:wmo:42049:1,2012-02-03T22:00:00Z,28.3507,-96.0058,2.0,270.6079156,42.44238565,-99999.0,'11111222,11111222,99999999' 
TABS,ioos:station:wmo:42049:1,2012-02-03T22:30:00Z,28.3507,-96.0058,2.0,267.6412804,42.28581441,-99999.0,'11111222,11111222,99999999' 
TABS,ioos:station:wmo:42049:1,2012-02-03T23:00:00Z,28.3507,-96.0058,2.0,261.3643096,42.82546555,-99999.0,'11111222,11111222,99999999' 
TABS,ioos:station:wmo:42049:1,2012-02-03T23:30:00Z,28.3507,-96.0058,2.0,255.7712242,41.94677222,-99999.0,'11111222,11111222,99999999' 
TABS,ioos:station:wmo:42049:1,2012-02-04T00:00:00Z,28.3507,-96.0058,2.0,253.6124042,41.68330241,-99999.0,'11111222,11111222,99999999' 
TABS,ioos:station:wmo:42049:1,2012-02-04T00:30:00Z,28.3507,-96.0058,2.0,250.627924,41.39342218,-99999.0,'11111222,11111222,99999999' 
TABS,ioos:station:wmo:42049:1,2012-02-04T01:00:00Z,28.3507,-96.0058,2.0,246.1914997,42.21215465,-99999.0,'11111222,11111222,99999999' 
TABS,ioos:station:wmo:42049:1,2012-02-04T01:30:00Z,28.3507,-96.0058,2.0,247.9286731,42.23501509,-99999.0,'11111222,11111222,99999999' 
TABS,ioos:station:wmo:42049:1,2012-02-04T02:00:00Z,28.3507,-96.0058,2.0,244.630649,39.42152331,-99999.0,'11111222,11111222,99999999' 
TABS,ioos:station:wmo:42049:1,2012-02-04T02:30:00Z,28.3507,-96.0058,2.0,239.2220267,38.53765042,-99999.0,'11111222,11111222,99999999' 
TABS,ioos:station:wmo:42049:1,2012-02-04T03:00:00Z,28.3507,-96.0058,2.0,237.0747417,38.83802389,-99999.0,'11111222,11111222,99999999' 
TABS,ioos:station:wmo:42049:1,2012-02-04T03:30:00Z,28.3507,-96.0058,2.0,238.911968,40.43774598,-99999.0,'11111222,11111222,99999999' 
TABS,ioos:station:wmo:42049:1,2012-02-04T04:00:00Z,28.3507,-96.0058,2.0,235.3305518,38.95673498,-99999.0,'11111222,11111222,99999999' 
TABS,ioos:station:wmo:42049:1,2012-02-04T04:30:00Z,28.3507,-96.0058,2.0,233.5446195,38.1189992,-99999.0,'11111222,11111222,99999999' 
TABS,ioos:station:wmo:42049:1,2012-02-04T05:00:00Z,28.3507,-96.0058,2.0,229.2761652,40.67997665,-99999.0,'11111222,11111222,99999999' 
TABS,ioos:station:wmo:42049:1,2012-02-04T05:30:00Z,28.3507,-96.0058,2.0,221.8096582,39.64526958,-99999.0,'11111222,11111222,99999999' 
TABS,ioos:station:wmo:42049:1,2012-02-04T06:00:00Z,28.3507,-96.0058,2.0,219.3162775,40.05651632,-99999.0,'11111222,11111222,99999999' 
TABS,ioos:station:wmo:42049:1,2012-02-04T06:30:00Z,28.3507,-96.0058,2.0,215.3566082,37.94923056,-99999.0,'11111222,11111222,99999999' 
TABS,ioos:station:wmo:42049:1,2012-02-04T07:00:00Z,28.3507,-96.0058,2.0,214.5705727,40.23438579,-99999.0,'11111222,11111222,99999999' 
TABS,ioos:station:wmo:42049:1,2012-02-04T07:30:00Z,28.3507,-96.0058,2.0,215.854934,41.11044636,-99999.0,'11111222,11111222,99999999' 
TABS,ioos:station:wmo:42049:1,2012-02-04T08:00:00Z,28.3507,-96.0058,2.0,209.7048626,37.55524597,-99999.0,'11111222,11111222,99999999' 
TABS,ioos:station:wmo:42049:1,2012-02-04T08:30:00Z,28.3507,-96.0058,2.0,273.669747,71.0957453,-99999.0,'11111222,11111222,99999999' 
TABS,ioos:station:wmo:42049:1,2012-02-04T09:00:00Z,28.3507,-96.0058,2.0,268.2371922,61.12891623,-99999.0,'11111222,11111222,99999999' 
TABS,ioos:station:wmo:42049:1,2012-02-04T09:30:00Z,28.3507,-96.0058,2.0,267.515344,60.90724177,-99999.0,'11111222,11111222,99999999' 
TABS,ioos:station:wmo:42049:1,2012-02-04T10:00:00Z,28.3507,-96.0058,2.0,267.9538451,61.90945808,-99999.0,'11111222,11111222,99999999' 
TABS,ioos:station:wmo:42049:1,2012-02-04T10:30:00Z,28.3507,-96.0058,2.0,264.2762118,57.9589277,-99999.0,'11111222,11111222,99999999' 
TABS,ioos:station:wmo:42049:1,2012-02-04T11:00:00Z,28.3507,-96.0058,2.0,267.8933501,58.49952222,-99999.0,'11111222,11111222,99999999' 
TABS,ioos:station:wmo:42049:1,2012-02-04T11:30:00Z,28.3507,-96.0058,2.0,267.28008,60.06764936,-99999.0,'11111222,11111222,99999999' 
TABS,ioos:station:wmo:42049:1,2012-02-04T12:00:00Z,28.3507,-96.0058,2.0,270.0368454,62.92001271,-99999.0,'11111222,11111222,99999999' 
TABS,ioos:station:wmo:42049:1,2012-02-04T12:30:00Z,28.3507,-96.0058,2.0,268.6133685,62.41826736,-99999.0,'11111222,11111222,99999999' 
TABS,ioos:station:wmo:42049:1,2012-02-04T13:00:00Z,28.3507,-96.0058,2.0,267.5329839,61.80726575,-99999.0,'11111222,11111222,99999999' 
TABS,ioos:station:wmo:42049:1,2012-02-04T13:30:00Z,28.3507,-96.0058,2.0,268.9270418,59.30038954,-99999.0,'11111222,11111222,99999999' 
TABS,ioos:station:wmo:42049:1,2012-02-04T14:00:00Z,28.3507,-96.0058,2.0,266.5012621,62.76696105,-99999.0,'11111222,11111222,99999999' 
TABS,ioos:station:wmo:42049:1,2012-02-04T14:30:00Z,28.3507,-96.0058,2.0,269.8424025,61.97023318,-99999.0,'11111222,11111222,99999999' 
TABS,ioos:station:wmo:42049:1,2012-02-04T15:00:00Z,28.3507,-96.0058,2.0,268.5670243,61.99937822,-99999.0,'11111222,11111222,99999999' 
TABS,ioos:station:wmo:42049:1,2012-02-04T15:30:00Z,28.3507,-96.0058,2.0,269.5769832,61.01165954,-99999.0,'11111222,11111222,99999999' 
TABS,ioos:station:wmo:42049:1,2012-02-04T16:00:00Z,28.3507,-96.0058,2.0,265.1901961,59.27871287,-99999.0,'11111222,11111222,99999999' 